#timestamp,LO_Frequency,Hit,StdDev 
1507471215.9,286047001.9,N
1507471235.7,286047001.5,N
1507471255.5,286046999.7,N
1507471275.3,286047001.8,N
1507471295.2,286046998.2,N
1507471315.0,286047000.3,N
1507471315.9,286047000.3,N
1507471335.8,286047006.0,Y
1507471355.6,286047001.9,P
1507471375.4,286047001.8,N
1507471395.2,286047005.1,P
1507471415.1,286047007.1,Y
1507471416.0,286047007.1,P
1507471435.8,286047004.8,N
1507471455.6,286047003.5,N
1507471475.5,286047005.1,N
1507471495.3,286047003.5,N
1507471515.1,286047003.5,N
1507471535.9,286047007.1,Y
1507471555.7,286046998.1,P
1507471575.5,286047000.7,N
1507471595.4,286047000.3,N
1507471615.2,286046998.8,N
1507471635.0,286046999.5,N
1507471635.9,286046999.5,N
1507471655.8,286047000.4,N
1507471675.6,286047002.2,N
1507471695.4,286047001.9,N
1507471715.3,286047000.5,N
1507471735.1,286046999.4,N
1507471736.0,286046999.4,N
1507471755.8,286046999.3,N
1507471775.7,286047000.2,N
1507471795.5,286047002.5,N
1507471815.3,286046998.2,N
1507471835.2,286046999.3,N
1507471855.9,286046996.8,N
1507471875.7,286046998.1,N
1507471895.5,286046999.7,N
1507471915.4,286047003.8,N
1507471935.2,286046999.9,N
1507471955.0,286047005.9,Y
1507471956.0,286047005.9,P
1507471975.8,286047000.6,N
1507471995.6,286046999.3,N
1507472015.4,286046999.5,N
1507472035.3,286046998.7,N
1507472055.1,286047002.8,N
1507472075.8,286047002.1,N
1507472095.7,286047003.9,N
1507472115.5,286047001.7,N
1507472135.3,286046999.8,N
1507472155.2,286046996.6,N
1507472175.9,286046998.8,N
1507472195.7,286046999.6,N
1507472215.6,286046993.3,N
1507472235.4,286046996.7,N
1507472255.2,286046996.4,N
1507472275.0,286046999.9,N
1507472275.9,286046999.9,N
1507472295.8,286047000.1,N
1507472315.6,286046998.1,N
1507472335.4,286046999.4,N
1507472355.3,286046999.4,N
1507472375.1,286047001.5,N
1507472395.8,286047002.8,N
1507472415.7,286046999.7,N
1507472435.5,286047000.0,N
1507472455.3,286047001.2,N
1507472475.2,286046998.7,N
1507472495.9,286047004.4,N
1507472515.7,286047004.4,N
1507472535.6,286046999.4,N
1507472555.4,286047002.6,N
1507472575.2,286047004.4,N
1507472595.0,286047000.6,N
1507472595.9,286047000.6,N
1507472615.8,286047004.1,N
1507472635.6,286047002.2,N
1507472655.4,286047001.2,N
1507472675.3,286047000.3,N
1507472695.1,286047000.2,N
1507472715.8,286047005.2,N
1507472735.7,286047005.9,N
1507472755.5,286047004.3,N
1507472775.3,286047004.3,N
1507472795.2,286047004.1,N
1507472815.9,286047003.3,N
1507472835.7,286047002.8,N
1507472855.6,286047001.9,N
1507472875.4,286047004.5,N
1507472895.2,286047005.7,N
1507472915.1,286047008.4,Y
1507472916.0,286047008.4,P
1507472935.8,286047002.9,N
1507472955.6,286047005.4,N
1507472975.5,286047003.6,N
1507472995.3,286047002.9,N
1507473015.1,286047003.2,N
1507473035.8,286047000.9,N
1507473055.7,286047002.7,N
1507473075.5,286046999.6,N
1507473095.3,286046996.6,N
1507473115.2,286047000.4,N
1507473135.9,286047001.6,N
1507473155.7,286047003.7,N
1507473175.6,286047003.5,N
1507473195.4,286047002.2,N
1507473215.2,286047000.7,N
1507473235.1,286047000.7,N
1507473236.0,286047000.7,N
1507473255.8,286046998.4,N
1507473275.6,286047002.6,N
1507473295.5,286047004.6,N
1507473315.3,286047004.3,N
1507473335.1,286047003.7,N
1507473355.8,286047001.6,N
1507473375.7,286046999.9,N
1507473395.5,286047000.2,N
1507473415.3,286047001.9,N
1507473435.2,286047003.2,N
1507473455.9,286047004.3,N
1507473475.7,286047001.0,N
1507473495.6,286046999.4,N
1507473515.4,286046995.1,N
1507473535.2,286046998.6,N
1507473555.1,286046996.6,N
1507473556.0,286046996.6,N
1507473575.8,286046995.8,N
1507473595.6,286047000.8,N
1507473615.5,286046998.7,N
1507473635.3,286046997.5,N
1507473655.1,286046997.3,N
1507473675.8,286046997.5,N
1507473695.7,286046998.8,N
1507473715.5,286046998.2,N
1507473735.3,286047002.8,N
1507473755.2,286047000.6,N
1507473775.0,286047002.7,N
1507473775.9,286047002.7,N
1507473795.7,286046998.3,N
1507473815.6,286047000.3,N
1507473835.4,286047003.3,N
1507473855.2,286047003.8,N
1507473875.1,286047002.3,N
1507473876.0,286047002.3,N
1507473895.8,286047001.8,N
1507473915.6,286046996.6,N
1507473935.5,286046999.6,N
1507473955.3,286046999.1,N
1507473975.1,286046999.0,N
1507473995.9,286046999.1,N
1507474015.7,286046998.4,N
1507474035.5,286047001.6,N
1507474055.3,286047000.8,N
1507474075.2,286047002.3,N
1507474095.0,286047004.0,N
1507474095.9,286047004.0,N
1507474115.7,286047001.8,N
1507474135.6,286047000.1,N
1507474155.4,286046997.3,N
1507474175.2,286046991.8,Y
1507474195.1,286046997.0,P
1507474196.0,286046997.0,N
1507474215.8,286046996.5,N
1507474235.6,286046998.8,N
1507474255.5,286047000.3,N
1507474275.3,286047001.6,N
1507474295.1,286047002.3,N
1507474315.9,286047003.7,N
1507474335.7,286047004.8,N
1507474355.5,286047005.8,N
1507474375.4,286047007.2,N
1507474395.2,286047006.3,N
1507474415.0,286047005.9,N
1507474415.9,286047005.9,N
1507474435.8,286047005.7,N
1507474455.6,286047005.0,N
1507474475.4,286047005.5,N
1507474495.2,286047007.0,N
1507474515.1,286047003.0,N
1507474516.0,286047003.0,N
1507474535.8,286047002.5,N
1507474555.6,286047006.0,N
1507474575.5,286047003.0,N
1507474595.3,286047007.4,N
1507474615.1,286047004.5,N
1507474635.9,286047005.8,N
1507474655.7,286047006.7,N
1507474675.5,286047009.9,Y
1507474695.4,286047000.1,P
1507474715.2,286047001.5,N
1507474735.0,286047000.5,N
1507474735.9,286047000.5,N
1507474755.8,286046998.7,N
1507474775.6,286046993.8,Y
1507474795.4,286046995.1,P
